[[{"header":{"parameterUnit":"m.s-1","parameterCategory":1,"la1":30.2991,"la2":30.254,"lo1":-89.0895,"lo2":-89.0444,"dy":0.0017,"dx":0.0017,"nx":28,"ny":28,"refTime":"2024-06-29T21:00:00:Z","depth":0,"parameterNumber":2,"parameterNumberName":"U-component_of_WINDS"},"data":[0,0,0,0,0,0,0,0,0,0,0,0,0,0,0,0,0,0,0,0,0,0,0,0,0,0,0,0,0,0,0,0,0,0,0,0,0,0,0,0,0,0,0,0,0,0,0,0,0,0,0,0,0,0,0,0,0,0,3.2362,3.2363,0,3.2468,3.2469,3.247,3.237,3.2366,3.2362,3.2358,3.2473,3.2479,3.2486,0,0,0,0,0,0,0,0,0,0,0,0,0,3.2077,3.2083,3.2361,3.2363,3.2364,3.2468,3.2469,3.2471,3.2371,3.2366,3.2361,3.2356,3.2471,3.2479,3.2487,0,0,0,0,0,0,0,0,0,0,0,0,0,3.2194,3.2085,3.2361,3.2327,3.2325,3.2467,3.2469,3.2471,3.2372,3.2366,3.236,3.2354,3.2468,3.2478,3.2488,3.2672,0,0,3.2519,3.2524,0,0,0,0,0,0,0,0,3.2187,3.2204,3.233,3.2329,3.2327,3.2399,3.2411,3.2539,3.2373,3.2354,3.2358,3.2351,3.2454,3.2465,3.2498,3.2677,3.2682,3.252,3.2526,3.2531,3.2534,0,0,0,0,0,0,0,3.2179,3.2199,3.2404,3.2332,3.2331,3.2307,3.2317,3.2434,3.2437,3.2355,3.2348,3.2362,3.2452,3.2488,3.25,3.2684,3.252,3.2529,3.2535,3.2539,3.3019,3.3026,0,0,0,0,0,0,3.2174,3.2193,3.24,3.2407,3.2241,3.2318,3.2329,3.2382,3.2435,3.2437,3.2367,3.2357,3.2474,3.2488,3.2504,3.2722,3.2531,3.254,3.2546,3.3013,3.3021,3.3028,0,0,0,0,0,0,3.2169,3.2194,3.2396,3.2298,3.2322,3.2329,3.239,3.2388,3.2424,3.2444,3.2444,3.2404,3.247,3.2489,3.263,3.2724,3.2545,3.2554,3.3005,3.3015,3.3024,3.316,0,0,0,0,0,0,3.2161,3.2192,3.2261,3.23,3.2328,3.252,3.2396,3.2394,3.2441,3.2429,3.2478,3.2481,3.2467,3.2616,3.2641,3.2735,3.2562,3.2996,3.3009,3.3021,3.3148,3.3174,3.3196,0,0,0,0,0,3.2151,3.2296,3.2265,3.2291,3.2414,3.2525,3.2541,3.252,3.2449,3.2519,3.2532,3.2479,3.271,3.2631,3.2658,3.2757,3.299,3.3006,3.302,3.3137,3.3169,3.3196,0,0,0,0,0,0,3.227,3.2301,3.2266,3.2428,3.2475,3.2508,3.2595,3.2555,3.2623,3.2609,3.2582,3.2594,3.2743,3.2764,3.2675,3.2938,3.2839,3.286,3.2918,3.2949,3.2973,3.2964,3.257,0,0,0,0,0,3.2314,3.2401,3.2424,3.2565,3.259,3.2589,3.2637,3.2617,3.2664,3.2684,3.2707,3.2756,3.284,3.2896,3.2974,3.315,3.316,3.3232,3.3257,3.3276,3.3295,3.339,3.3422,3.3077,3.3077,3.3077,0,0,3.2408,3.2436,3.2493,3.259,3.2623,3.2715,3.2606,3.2708,3.2776,3.27,3.2833,3.2852,3.2906,3.3066,3.3137,3.3088,3.3392,3.3296,3.3311,3.3319,3.3408,3.3441,3.347,3.3087,3.3085,3.3084,0,0,3.2626,3.2655,3.2775,3.2811,3.2862,3.2861,3.289,3.293,3.2939,3.3072,3.3017,3.3098,3.3243,3.3283,3.3323,3.3556,3.3511,3.3583,3.371,3.3803,3.383,3.3854,3.3937,3.3967,3.3601,3.3602,3.3602,0,3.2736,3.287,3.2843,3.2948,3.2993,3.2927,3.3049,3.3085,3.3161,3.3194,3.3137,3.3317,3.3349,3.3517,3.3573,3.3608,3.3641,3.3577,3.3828,3.3852,3.3874,3.3952,3.3984,3.361,3.3609,3.3608,3.3607,0,3.3003,3.3097,3.3188,3.326,3.3316,3.3429,3.3421,3.348,3.3455,3.346,3.3598,3.3633,3.3717,3.3756,3.3734,3.3921,3.3889,3.3831,3.3731,3.3915,3.3989,3.4019,3.3622,3.3619,3.3617,3.3614,0,0,3.3297,3.3353,3.3387,3.3419,3.3471,3.3544,3.3655,3.3735,3.3786,3.3841,3.3934,3.4058,3.4004,3.405,3.4031,3.4113,3.4295,3.4045,3.4046,3.409,3.4504,3.4547,3.4582,3.4265,3.4271,3.4276,3.4499,0,3.3516,3.3706,3.3685,3.3868,3.3954,3.3893,3.399,3.4034,3.4042,3.4118,3.4127,3.4215,3.4138,3.4165,3.4243,3.4256,3.4378,3.424,3.4353,3.4357,3.434,3.462,3.4666,3.4875,3.4528,3.4533,3.4536,0,3.3796,3.3858,3.4048,3.4087,3.4123,3.421,3.4281,3.4355,3.4403,3.4403,3.4454,3.4422,3.4535,3.4433,3.4589,3.4496,3.4541,3.4555,3.4563,3.4572,3.4457,3.4637,3.4942,3.4973,3.4582,3.4578,3.4575,0,3.399,3.4122,3.4253,3.4282,3.4331,3.4394,3.4417,3.4459,3.4509,3.4573,3.4605,3.4682,3.4724,3.4785,3.4775,3.4702,3.4935,3.4832,3.4939,3.494,3.499,3.4987,3.5306,3.5021,3.502,3.502,3.5019,0,3.4236,3.4355,3.4341,3.4421,3.4553,3.4529,3.4661,3.4677,3.4715,3.4799,3.4752,3.4832,3.4814,3.4894,3.4887,3.5018,3.5038,3.5042,3.5038,3.5046,3.5045,3.5074,3.5059,3.5028,3.5026,3.5025,3.5023,0,3.4475,3.447,3.4609,3.4643,3.4655,3.475,3.478,3.4857,3.4861,3.4968,3.4991,3.4999,3.5091,3.5087,3.5192,3.5187,3.5347,3.5328,3.533,3.5326,3.5433,3.5423,3.5781,3.5827,3.5513,3.5516,3.5518,0,3.4631,3.4721,3.4764,3.4816,3.4843,3.4927,3.4977,3.4958,3.5012,3.5074,3.5144,3.5231,3.5299,3.5449,3.5465,3.5545,3.5527,3.5647,3.5539,3.5543,3.5528,3.5522,3.5531,3.5668,3.5672,3.5674,3.5677,0,3.4909,3.4902,3.4975,3.5048,3.5108,3.5165,3.5217,3.5263,3.5249,3.5313,3.5405,3.5458,3.5564,3.5651,3.5728,3.5754,3.5714,3.5711,3.574,3.5747,3.5745,3.5747,3.5388,3.5703,3.57,3.5698,3.5697,3.5696,3.5111,3.5188,3.523,3.5313,3.535,3.5399,3.5473,3.5486,3.5562,3.5645,3.563,3.5733,3.578,3.5879,3.5912,3.5994,3.5951,3.5994,3.6004,3.6015,3.6026,3.5733,3.6008,3.6007,3.6007,3.6006,3.6006,0,3.5386,3.541,3.5486,3.5559,3.5625,3.558,3.5635,3.5694,3.5785,3.5831,3.5899,3.6006,3.609,3.6113,3.6195,3.6256,3.624,3.6278,3.6273,3.628,3.606,3.6026,3.629,3.629,3.629,3.629,3.629,3.629,3.5536,3.5663,3.5662,3.5808,3.5831,3.5931,3.5966,3.6012,3.6049,3.6169,3.6239,3.6252,3.629,3.6374,3.645,3.6455,3.6487,3.6533,3.653,3.6324,3.6296,3.6268,3.6237,3.654,3.6541,3.6743,3.6745,3.6747]},{"header":{"parameterUnit":"m.s-1","parameterCategory":1,"la1":30.2991,"la2":30.254,"lo1":-89.0895,"lo2":-89.0444,"dy":0.0017,"dx":0.0017,"nx":28,"ny":28,"refTime":"2024-06-29T21:00:00:Z","depth":0,"parameterNumber":3,"parameterNumberName":"V-component_of_WINDS"},"data":[0,0,0,0,0,0,0,0,0,0,0,0,0,0,0,0,0,0,0,0,0,0,0,0,0,0,0,0,0,0,0,0,0,0,0,0,0,0,0,0,0,0,0,0,0,0,0,0,0,0,0,0,0,0,0,0,0,0,1.9001,1.9001,0,1.9037,1.9037,1.9037,1.8973,1.8971,1.8969,1.8967,1.9008,1.9011,1.9014,0,0,0,0,0,0,0,0,0,0,0,0,0,1.8882,1.8884,1.9001,1.9001,1.9002,1.9036,1.9037,1.9037,1.8974,1.8971,1.8968,1.8966,1.9007,1.9011,1.9015,0,0,0,0,0,0,0,0,0,0,0,0,0,1.8927,1.8885,1.9001,1.8974,1.8972,1.9036,1.9037,1.9038,1.8974,1.8971,1.8968,1.8965,1.9006,1.901,1.9015,1.9109,0,0,1.9029,1.9031,0,0,0,0,0,0,0,0,1.8925,1.8932,1.8977,1.8976,1.8974,1.8997,1.901,1.9062,1.8975,1.8973,1.8967,1.8963,1.9007,1.9012,1.9026,1.9111,1.9113,1.903,1.9033,1.9035,1.9036,0,0,0,0,0,0,0,1.8922,1.893,1.9015,1.8978,1.8976,1.8962,1.8964,1.902,1.9008,1.8973,1.8969,1.8974,1.9006,1.9021,1.9026,1.9113,1.903,1.9034,1.9037,1.9038,1.9276,1.9279,0,0,0,0,0,0,1.8921,1.8928,1.9014,1.9016,1.8941,1.8966,1.8969,1.8993,1.9008,1.9007,1.8976,1.897,1.9015,1.9021,1.9027,1.9137,1.9035,1.9039,1.9042,1.9273,1.9277,1.9281,0,0,0,0,0,0,1.8919,1.893,1.9013,1.8971,1.898,1.8972,1.8999,1.8995,1.9011,1.901,1.9008,1.8994,1.9013,1.9021,1.9088,1.9138,1.9041,1.9045,1.9268,1.9274,1.9279,1.9358,0,0,0,0,0,0,1.8916,1.8929,1.8964,1.8972,1.8983,1.9072,1.9002,1.8998,1.9018,1.9011,1.9026,1.9025,1.9011,1.9082,1.9093,1.9143,1.9049,1.9264,1.9271,1.9277,1.9351,1.9366,1.9378,0,0,0,0,0,1.8912,1.8986,1.8966,1.8977,1.9025,1.9075,1.9081,1.9062,1.9023,1.9058,1.9057,1.9025,1.9131,1.9089,1.9102,1.9153,1.9261,1.9269,1.9277,1.9345,1.9363,1.9378,0,0,0,0,0,0,1.8986,1.8987,1.8964,1.9043,1.9059,1.9064,1.9108,1.9081,1.911,1.9102,1.9078,1.9082,1.9155,1.9161,1.9115,1.9244,1.9189,1.92,1.9237,1.9254,1.9267,1.9264,1.9053,0,0,0,0,0,1.9011,1.905,1.9049,1.9119,1.9128,1.9117,1.9138,1.9121,1.9137,1.9145,1.9149,1.9167,1.9204,1.923,1.9264,1.9352,1.9354,1.9393,1.9407,1.9418,1.9427,1.9474,1.9491,1.9307,1.9307,1.9306,0,0,1.9064,1.9069,1.9096,1.9134,1.9144,1.9186,1.9123,1.917,1.9201,1.9152,1.9215,1.922,1.9239,1.9316,1.9351,1.9324,1.9479,1.9428,1.9437,1.944,1.9484,1.9501,1.9517,1.9312,1.9311,1.931,0,0,1.9182,1.919,1.9248,1.926,1.9276,1.9268,1.9282,1.929,1.9291,1.9353,1.9317,1.9355,1.942,1.9434,1.945,1.9573,1.9544,1.9585,1.9655,1.97,1.9715,1.9728,1.9771,1.9787,1.9595,1.9595,1.9595,0,1.9247,1.9306,1.9282,1.9331,1.9349,1.9305,1.9364,1.9377,1.9405,1.9418,1.9387,1.9467,1.9477,1.9557,1.9587,1.9601,1.9617,1.9583,1.9714,1.9727,1.9739,1.978,1.9796,1.96,1.9599,1.9599,1.9598,0,1.9384,1.9427,1.9472,1.9497,1.952,1.9575,1.956,1.9586,1.9568,1.9563,1.9628,1.9638,1.9673,1.9691,1.9675,1.9769,1.9752,1.9718,1.9662,1.9761,1.9799,1.9815,1.9607,1.9605,1.9603,1.9602,0,0,1.955,1.956,1.9577,1.9588,1.9602,1.9635,1.9687,1.972,1.9743,1.9764,1.9807,1.9863,1.9831,1.9849,1.9834,1.9874,1.9969,1.9835,1.9835,1.9859,2.0074,2.0099,2.0118,1.995,1.9953,1.9956,2.0072,0,1.9666,1.9754,1.9734,1.9821,1.986,1.9818,1.9864,1.9878,1.9876,1.9909,1.9907,1.9946,1.9902,1.9913,1.995,1.995,2.0012,1.9941,1.9992,1.9994,1.9987,2.0138,2.0164,2.0274,2.0087,2.009,2.0092,0,1.9813,1.9837,1.9928,1.9935,1.995,1.9992,2.0019,2.0052,2.0067,2.0063,2.0083,2.0059,2.0112,2.0056,2.0129,2.0081,2.0101,2.0104,2.0107,2.0111,2.0048,2.0145,2.0309,2.0325,2.0115,2.0113,2.0111,0,1.9924,1.9979,2.004,2.0051,2.0061,2.009,2.0096,2.0108,2.0129,2.0154,2.0167,2.0199,2.0217,2.0242,2.0229,2.0189,2.0304,2.0247,2.0302,2.0303,2.0328,2.0326,2.0496,2.0342,2.0341,2.0341,2.0341,0,2.0055,2.0113,2.009,2.0127,2.019,2.0167,2.023,2.0232,2.0243,2.0281,2.0248,2.0285,2.0264,2.03,2.0289,2.0351,2.0359,2.0358,2.0354,2.036,2.0361,2.0373,2.0365,2.0345,2.0344,2.0343,2.0343,0,2.019,2.0177,2.024,2.0244,2.0246,2.0292,2.0296,2.0332,2.0326,2.0375,2.0385,2.0377,2.0417,2.0405,2.045,2.0443,2.0521,2.0508,2.0515,2.0511,2.0567,2.0562,2.075,2.0774,2.0604,2.0606,2.0607,0,2.0274,2.0316,2.0324,2.0346,2.0354,2.039,2.041,2.039,2.0412,2.0433,2.0466,2.0503,2.0531,2.0597,2.0596,2.063,2.0617,2.0681,2.0622,2.0627,2.0618,2.0615,2.0619,2.0693,2.0695,2.0696,2.0698,0,2.0425,2.0416,2.0445,2.0473,2.0498,2.0519,2.0537,2.0558,2.0538,2.0566,2.0605,2.0627,2.0671,2.0708,2.0738,2.0745,2.0719,2.0716,2.073,2.0737,2.0739,2.0738,2.0546,2.0712,2.071,2.0709,2.0709,2.0708,2.0536,2.0572,2.0582,2.0616,2.0627,2.0645,2.0678,2.0676,2.0708,2.0741,2.0727,2.0773,2.0787,2.0825,2.0836,2.0872,2.0848,2.0869,2.0875,2.088,2.0887,2.0734,2.0878,2.0878,2.0877,2.0877,2.0877,0,2.0685,2.0689,2.072,2.0746,2.0773,2.0744,2.0763,2.0788,2.0827,2.0843,2.087,2.0916,2.0951,2.0953,2.0987,2.1015,2.1004,2.1025,2.1022,2.1024,2.0907,2.0891,2.1033,2.1033,2.1033,2.1033,2.1033,2.1033,2.0765,2.0823,2.0816,2.0879,2.0884,2.0927,2.094,2.0956,2.0968,2.102,2.1048,2.1048,2.1059,2.1092,2.1124,2.1124,2.1138,2.1163,2.1158,2.1048,2.1033,2.1018,2.1002,2.1166,2.1167,2.1273,2.1274,2.1275]}]]